EUTELSAT 65 WEST A

Last updated on Feb. 20, 2020, 4:40 a.m. UTC

1 41382U 16014A   20050.88335410 -.00000294  00000-0  00000-0 0  9995
2 41382   0.0527 356.1943 0001723 349.9551  55.8900  1.00269091 14385
UTC
Height (km)
Latitude
Longitude
Inclination
Orbital Period
UTC large
Height (km)
Speed (km/s)
/
Latitude / Longitude
Inclination (degrees)
Orbital Period (minutes)
Azimuth
Elevation
Range (km)
Doppler Factor
iOS Compass Heading
iOS Angle

Next 30 passes for location: Hong Kong

Rise time Rise Azimuth (degrees) Set time Set Azimuth (degrees) Duration Max altitude (degrees)

No matching passes for this satellites